Norman, Oklahoma, United States (73019)
Lat: 35.22N, Lon: 97.44W
Wx Zone: OKZ029
Local Info
Past Weather Observations for Today

NOTE: This archive is for the closest National Weather Service station to Norman. Information may differ from the station used for current weather conditions.

Click here for Long-term Archive

Time Weather Temperature Dewpoint Humidity Pressure Winds Precip Visibility
16:15
Overcast
Rain
39°F / 4°C 39°F / 4°C 100% 29.98 in
(1015 mb)
S 6.9 mph
(S 11 kph)
0.03 in
(0.76 mm)
4SM
15:55
Overcast
Rain
41°F / 5°C 41°F / 5°C 100% 29.98 in
(1015 mb)
S 5.8 mph
(S 9 kph)
0.06 in
(1.52 mm)
7SM
15:35
Overcast
Light Rain
41°F / 5°C 41°F / 5°C 100% 29.98 in
(1015 mb)
SSE 6.9 mph
(SSE 11 kph)
0.04 in
(1.02 mm)
7SM
15:15
Overcast
Light Rain
41°F / 5°C 41°F / 5°C 100% 29.98 in
(1015 mb)
SE 12.7 mph
(SE 20 kph)
0.01 in
(0.25 mm)
7SM
14:55
Overcast
Light Rain
41°F / 5°C 41°F / 5°C 100% 29.98 in
(1015 mb)
SE 12.7 mph
(SE 20 kph)
0.02 in
(0.51 mm)
7SM
14:35
Overcast
Rain
41°F / 5°C 41°F / 5°C 100% 30.01 in
(1016 mb)
SE 16.1 mph
(SE 26 kph)
0.02 in
(0.51 mm)
10SM
14:15
Overcast
Drizzle
41°F / 5°C 41°F / 5°C 100% 30.01 in
(1016 mb)
SE 13.8 mph
(SE 22 kph)
0.01 in
(0.25 mm)
10SM
13:55
Overcast
Rain
39°F / 4°C 39°F / 4°C 100% 30.01 in
(1016 mb)
SE 13.8 mph
(SE 22 kph)
0.03 in
(0.76 mm)
10SM
13:35
Overcast
Rain
39°F / 4°C 39°F / 4°C 100% 30.04 in
(1017 mb)
SE 16.1 mph
(SE 26 kph)
0.02 in
(0.51 mm)
10SM
13:15
Overcast
Rain
39°F / 4°C 39°F / 4°C 100% 30.06 in
(1018 mb)
SE 15 mph
(SE 24 kph)
0.01 in
(0.25 mm)
10SM
12:55
Overcast
Drizzle
39°F / 4°C 39°F / 4°C 100% 30.06 in
(1018 mb)
SE 12.7 mph
(SE 20 kph)
0.01 in
(0.25 mm)
10SM
12:35
Overcast
Drizzle
39°F / 4°C 39°F / 4°C 100% 30.12 in
(1020 mb)
SE 11.5 mph
(SE 19 kph)
- 10SM
12:15
Overcast
Drizzle
41°F / 5°C 39°F / 4°C 93% 30.12 in
(1020 mb)
SSE 10.4 mph
(SSE 17 kph)
- 10SM
11:55
Overcast
Drizzle
39°F / 4°C 37°F / 3°C 93% 30.15 in
(1021 mb)
SE 11.5 mph
(SE 19 kph)
0.02 in
(0.51 mm)
10SM
11:35
Overcast
Drizzle
39°F / 4°C 37°F / 3°C 93% 30.18 in
(1022 mb)
SSE 9.2 mph
(SSE 15 kph)
0.01 in
(0.25 mm)
10SM
11:15
Overcast
Drizzle
39°F / 4°C 37°F / 3°C 93% 30.18 in
(1022 mb)
SSE 8.1 mph
(SSE 13 kph)
0.01 in
(0.25 mm)
10SM
10:55
Overcast
Light Rain
37°F / 3°C 37°F / 3°C 100% 30.18 in
(1022 mb)
S 5.8 mph
(S 9 kph)
0.04 in
(1.02 mm)
10SM
10:35
Overcast
Light Rain
37°F / 3°C 37°F / 3°C 100% 30.18 in
(1022 mb)
SSE 9.2 mph
(SSE 15 kph)
0.03 in
(0.76 mm)
10SM
10:15
Overcast
Rain
39°F / 4°C 36°F / 2°C 87% 30.18 in
(1022 mb)
SSE 9.2 mph
(SSE 15 kph)
0.02 in
(0.51 mm)
7SM
09:55
Overcast
Light Rain
39°F / 4°C 36°F / 2°C 87% 30.18 in
(1022 mb)
SSE 11.5 mph
(SSE 19 kph)
0.02 in
(0.51 mm)
10SM
09:35
Overcast
Drizzle
41°F / 5°C 36°F / 2°C 81% 30.18 in
(1022 mb)
SSE 11.5 mph
(SSE 19 kph)
0.01 in
(0.25 mm)
10SM
09:15
Overcast
Drizzle
39°F / 4°C 36°F / 2°C 87% 30.18 in
(1022 mb)
SSE 9.2 mph
(SSE 15 kph)
- 10SM
08:55
Overcast
Drizzle
41°F / 5°C 36°F / 2°C 81% 30.18 in
(1022 mb)
SSE 9.2 mph
(SSE 15 kph)
- 10SM
08:35
Overcast
Rain
41°F / 5°C 36°F / 2°C 81% 30.18 in
(1022 mb)
SSE 10.4 mph
(SSE 17 kph)
- 10SM
08:15
Overcast
Rain
41°F / 5°C 36°F / 2°C 81% 30.18 in
(1022 mb)
SE 9.2 mph
(SE 15 kph)
- 10SM
07:55
Overcast
Rain
41°F / 5°C 34°F / 1°C 76% 30.18 in
(1022 mb)
SE 8.1 mph
(SE 13 kph)
0.01 in
(0.25 mm)
10SM
07:35
Overcast
Light Rain
41°F / 5°C 34°F / 1°C 76% 30.18 in
(1022 mb)
SSE 11.5 mph
(SSE 19 kph)
0.01 in
(0.25 mm)
10SM
07:15
Overcast
Rain
41°F / 5°C 34°F / 1°C 76% 30.18 in
(1022 mb)
SE 9.2 mph
(SE 15 kph)
- 10SM
06:55
Overcast
Drizzle
41°F / 5°C 34°F / 1°C 76% 30.18 in
(1022 mb)
SSE 9.2 mph
(SSE 15 kph)
- 10SM
06:35
Overcast
Drizzle
41°F / 5°C 34°F / 1°C 76% 30.21 in
(1023 mb)
SSE 6.9 mph
(SSE 11 kph)
- 10SM
06:15
Overcast
Rain
41°F / 5°C 34°F / 1°C 76% 30.21 in
(1023 mb)
SSE 8.1 mph
(SSE 13 kph)
- 10SM
05:55
Overcast
Drizzle
41°F / 5°C 34°F / 1°C 76% 30.21 in
(1023 mb)
SSE 9.2 mph
(SSE 15 kph)
- 10SM
05:35
Overcast
Rain
43°F / 6°C 32°F / 0°C 66% 30.21 in
(1023 mb)
SSE 9.2 mph
(SSE 15 kph)
- 10SM
05:15
Overcast
Drizzle
43°F / 6°C 32°F / 0°C 66% 30.21 in
(1023 mb)
SSE 11.5 mph
(SSE 19 kph)
- 10SM
04:55
Overcast
43°F / 6°C 32°F / 0°C 66% 30.21 in
(1023 mb)
SSE 9.2 mph
(SSE 15 kph)
- 10SM
04:35
Overcast
43°F / 6°C 32°F / 0°C 66% 30.21 in
(1023 mb)
SE 5.8 mph
(SE 9 kph)
- 10SM
04:15
Overcast
43°F / 6°C 32°F / 0°C 66% 30.24 in
(1024 mb)
SE 3.5 mph
(SE 6 kph)
- 10SM
03:55
Mostly Cloudy
43°F / 6°C 32°F / 0°C 66% 30.24 in
(1024 mb)
Calm - 10SM
03:35
Overcast
43°F / 6°C 32°F / 0°C 66% 30.24 in
(1024 mb)
S 3.5 mph
(S 6 kph)
- 10SM
03:15
Mostly Cloudy
43°F / 6°C 32°F / 0°C 66% 30.24 in
(1024 mb)
S 4.6 mph
(S 7 kph)
- 10SM
02:55
Partly Cloudy
43°F / 6°C 32°F / 0°C 66% 30.24 in
(1024 mb)
SSE 4.6 mph
(SSE 7 kph)
- 10SM
02:35
Partly Cloudy
43°F / 6°C 32°F / 0°C 66% 30.24 in
(1024 mb)
SSE 3.5 mph
(SSE 6 kph)
- 10SM
02:15
Mostly Cloudy
43°F / 6°C 32°F / 0°C 66% 30.24 in
(1024 mb)
SE 6.9 mph
(SE 11 kph)
- 10SM
01:55
Overcast
43°F / 6°C 32°F / 0°C 66% 30.24 in
(1024 mb)
SE 6.9 mph
(SE 11 kph)
- 10SM
01:35
Overcast
43°F / 6°C 30°F / -1°C 61% 30.24 in
(1024 mb)
SE 5.8 mph
(SE 9 kph)
- 10SM
01:15
Overcast
43°F / 6°C 30°F / -1°C 61% 30.27 in
(1025 mb)
SE 4.6 mph
(SE 7 kph)
- 10SM
00:55
Overcast
41°F / 5°C 30°F / -1°C 66% 30.27 in
(1025 mb)
ESE 5.8 mph
(ESE 9 kph)
- 10SM
00:35
Overcast
43°F / 6°C 30°F / -1°C 61% 30.27 in
(1025 mb)
SE 5.8 mph
(SE 9 kph)
- 10SM
00:15
Overcast
41°F / 5°C 30°F / -1°C 66% 30.27 in
(1025 mb)
SE 5.8 mph
(SE 9 kph)
- 10SM
Time Weather Temperature Dewpoint Humidity Pressure Winds Precip Visibility


Weather for websites

WeatherForYou.com, LLC is not responsible for any damages or problems caused by this service. Current weather conditions are obtained from the closest station including government and personal stations which may have varying degrees of accuracy. Weather forecasts are derived from the NOAA NDFD. Like all things, this site belongs to Jesus Christ... He just trusts me to maintain it. If you have any questions or comments email webmaster@weatherforyou.com

Copyright © 2015, WeatherForYou.com LLC. All rights reserved.